STARLINK-1973, 47628

Orbit data source: Space-Track

STARLINK-1973, 47628 is a payload satellite owned by SpaceX/Seattle (US) in LEO that was launched on Tue, 16 Feb 2021 UTC via an FALCON 9 launch vehicle from the Air Force Eastern Test Range (AFETR). Payload-class satellites include a variety of spacecraft equipped with specific instruments for various scientific and technological missions. These include communications satellites like Starlink; space stations such as the ISS; scientific satellites like the Hubble; Earth observation satellites from companies like Planet Labs, Umbra, and HawkEye 360; GPS; miniature CubeSats for education and research; and military/defense satellites.

Loading next visibility...
Identifier
47628, 2021-012J
Orbit
LEO
Country
Flag of USUS
Related business
Manufacturer
SpaceX/Seattle
Mission
Operational Commercial Communications
Bus & Motor
STARLINK, Unknown motor
Mass
260 kg wet, ~248 kg dry
Launch date (UTC)
2021-02-16 (5 years ago)
Launch vehicle
FALCON 9
Launch site
Air Force Eastern Test Range (AFETR)
Object type
Payload
Rocket body
Debris
Shape & HBR
Box + 1 Pan, 10.1 m
Radar Cross Section
13.562 m², Large (>1 m²)

Expand to show TLE details & history
Last TLE update: 2 days ago

TLE from 2 days ago
0 STARLINK-1973
1 47628U 21012J   26171.40425118  .00000208  00000-0  18456-4 0  9993
2 47628  53.1576 307.1474 0001366  96.3102 263.8055 15.31701082295822
Epoch: 2026-06-20T09:42Z
TLE epoch observation values (Epoch: 2026-06-20T09:42:07.301Z)
Latitude
-0.00005°
Longitude
-107.00242°
Altitude
471.738 km
Speed
7.631 km/s
True Right ascension
20h 28m 35s
True Declination
0° 00' 00"
Sunlit
Object was in full shadow at epoch
Visualization orbit readout
Latitude
Unknown
Longitude
Unknown
Altitude
Unknown
Speed
Unknown
Apparent Right ascension
Unknown
Apparent Declination
Unknown
Sunlit
N/A
Visualization observer readout
Local Sidereal Time
21:41:57
Azimuth
Unknown
Elevation
Unknown
Doppler factor
Unknown
Orbital elements
Apogee altitude
471.929 km
Perigee altitude
470.058 km
Semi-major axis
6,849.131 km
Eccentricity
0.00014
Inclination
53.1576°
RAAN
307.1474°
Arg. of periapsis
96.3102°
True anomaly
263.78994°
Mean anomaly
263.8055°
Eccentric anomaly
263.79772°
Mean motion
3.82904 °/min
Orbital period
94.02 mins
BSTAR
0.000018456
Loading maneuver chart data...
Computing Atmospheric mass density...

Documentation

Showing up to 5 results
|